Precipitable_Water
0.31 0.32 0.28 0.27 0.27 0.28 0.27 0.26 0.21 0.22 0.25 0.34 0.37 0.38 0.39 0.40 0.39 0.36 0.34 0.33 0.32 0.32 0.34 0.36 0.37 0.41 0.43 0.45 0.49 0.51 0.51 0.53 0.54 0.55 0.56 0.56 0.58 0.62 0.67 0.75 0.82 0.88 0.91 0.98
0.29 0.31 0.24 0.22 0.24 0.22 0.22 0.22 0.22 0.23 0.25 0.37 0.39 0.39 0.37 0.35 0.33 0.31 0.31 0.31 0.34 0.34 0.35 0.36 0.37 0.40 0.43 0.46 0.49 0.53 0.52 0.53 0.55 0.55 0.55 0.56 0.58 0.62 0.67 0.73 0.80 0.83 0.88 0.92
0.24 0.29 0.27 0.19 0.22 0.23 0.25 0.28 0.26 0.19 0.28 0.34 0.31 0.30 0.30 0.31 0.31 0.28 0.29 0.31 0.33 0.35 0.35 0.37 0.39 0.43 0.44 0.47 0.51 0.52 0.52 0.54 0.54 0.55 0.56 0.56 0.58 0.61 0.66 0.71 0.75 0.80 0.83 0.87
0.21 0.22 0.16 0.25 0.31 0.29 0.26 0.27 0.28 0.26 0.27 0.29 0.28 0.29 0.29 0.28 0.27 0.28 0.30 0.31 0.35 0.34 0.37 0.40 0.43 0.45 0.47 0.49 0.50 0.51 0.52 0.53 0.54 0.55 0.56 0.58 0.59 0.62 0.68 0.71 0.71 0.74 0.77 0.80
0.18 0.18 0.24 0.26 0.28 0.24 0.21 0.20 0.25 0.24 0.26 0.27 0.27 0.26 0.24 0.30 0.33 0.33 0.35 0.37 0.39 0.41 0.42 0.44 0.45 0.48 0.49 0.49 0.50 0.51 0.51 0.53 0.55 0.56 0.56 0.58 0.59 0.64 0.67 0.67 0.69 0.69 0.74 0.76
0.18 0.15 0.12 0.23 0.28 0.33 0.27 0.12 0.23 0.25 0.26 0.29 0.30 0.22 0.26 0.35 0.36 0.36 0.38 0.40 0.42 0.44 0.45 0.45 0.47 0.50 0.49 0.49 0.49 0.49 0.50 0.50 0.52 0.53 0.53 0.54 0.57 0.60 0.62 0.64 0.65 0.67 0.68 0.71
0.18 0.16 0.20 0.31 0.32 0.34 0.15 0.14 0.26 0.29 0.30 0.30 0.28 0.31 0.35 0.37 0.37 0.40 0.42 0.43 0.44 0.45 0.44 0.46 0.48 0.48 0.47 0.47 0.47 0.49 0.50 0.48 0.46 0.46 0.46 0.46 0.49 0.51 0.52 0.54 0.58 0.61 0.63 0.65
0.17 0.16 0.14 0.32 0.31 0.22 0.25 0.29 0.29 0.31 0.33 0.33 0.34 0.36 0.37 0.37 0.38 0.40 0.41 0.43 0.44 0.43 0.43 0.45 0.45 0.44 0.41 0.40 0.40 0.42 0.41 0.40 0.38 0.36 0.35 0.35 0.34 0.36 0.38 0.39 0.40 0.43 0.49 0.53
0.20 0.21 0.32 0.34 0.32 0.32 0.32 0.32 0.34 0.34 0.36 0.36 0.35 0.36 0.35 0.36 0.39 0.40 0.41 0.42 0.43 0.41 0.40 0.39 0.38 0.37 0.34 0.33 0.34 0.32 0.31 0.30 0.30 0.29 0.28 0.28 0.26 0.25 0.23 0.25 0.28 0.29 0.30 0.32
0.25 0.27 0.30 0.30 0.32 0.33 0.35 0.36 0.37 0.38 0.37 0.38 0.36 0.36 0.37 0.38 0.39 0.40 0.41 0.40 0.38 0.34 0.32 0.31 0.32 0.32 0.31 0.28 0.26 0.24 0.21 0.21 0.21 0.22 0.22 0.23 0.22 0.22 0.21 0.20 0.18 0.19 0.21 0.23
0.25 0.29 0.28 0.29 0.31 0.34 0.36 0.38 0.38 0.39 0.39 0.39 0.39 0.38 0.39 0.38 0.38 0.37 0.36 0.35 0.33 0.29 0.25 0.23 0.22 0.21 0.21 0.21 0.21 0.19 0.20 0.18 0.18 0.19 0.19 0.20 0.21 0.21 0.21 0.22 0.21 0.19 0.19 0.19
0.20 0.27 0.28 0.29 0.33 0.36 0.36 0.37 0.39 0.38 0.38 0.39 0.38 0.37 0.37 0.36 0.35 0.33 0.31 0.28 0.25 0.21 0.17 0.16 0.17 0.17 0.18 0.18 0.18 0.17 0.17 0.17 0.17 0.17 0.18 0.19 0.18 0.19 0.23 0.22 0.20 0.18 0.20 0.21
0.29 0.35 0.33 0.34 0.36 0.37 0.37 0.39 0.39 0.39 0.38 0.37 0.37 0.36 0.34 0.32 0.30 0.28 0.26 0.21 0.17 0.15 0.13 0.12 0.13 0.14 0.16 0.18 0.18 0.16 0.16 0.18 0.18 0.18 0.18 0.18 0.18 0.18 0.16 0.19 0.19 0.16 0.17 0.19
0.34 0.33 0.31 0.33 0.33 0.37 0.39 0.40 0.40 0.40 0.38 0.36 0.35 0.34 0.31 0.28 0.26 0.22 0.18 0.16 0.14 0.13 0.11 0.10 0.10 0.12 0.15 0.17 0.19 0.18 0.16 0.18 0.19 0.19 0.18 0.17 0.17 0.17 0.16 0.15 0.13 0.12 0.13 0.15
0.30 0.33 0.33 0.36 0.37 0.37 0.40 0.40 0.38 0.36 0.35 0.33 0.32 0.29 0.26 0.23 0.19 0.17 0.16 0.14 0.12 0.11 0.10 0.10 0.09 0.10 0.15 0.17 0.17 0.18 0.17 0.16 0.17 0.17 0.15 0.15 0.16 0.15 0.15 0.14 0.13 0.12 0.12 0.12
0.30 0.32 0.33 0.33 0.34 0.36 0.36 0.36 0.35 0.34 0.32 0.31 0.28 0.26 0.24 0.20 0.16 0.14 0.13 0.12 0.09 0.09 0.10 0.10 0.10 0.11 0.14 0.16 0.16 0.16 0.15 0.15 0.16 0.15 0.15 0.15 0.15 0.15 0.14 0.14 0.13 0.12 0.12 0.11
0.26 0.27 0.30 0.31 0.33 0.34 0.35 0.36 0.35 0.34 0.31 0.29 0.27 0.25 0.20 0.16 0.14 0.11 0.11 0.11 0.10 0.10 0.11 0.11 0.11 0.12 0.14 0.15 0.15 0.15 0.15 0.14 0.15 0.14 0.13 0.14 0.13 0.13 0.14 0.13 0.12 0.13 0.13 0.13
0.31 0.32 0.34 0.34 0.34 0.35 0.36 0.37 0.35 0.33 0.31 0.29 0.26 0.21 0.17 0.14 0.10 0.11 0.12 0.13 0.12 0.10 0.11 0.12 0.13 0.12 0.13 0.15 0.15 0.15 0.14 0.14 0.14 0.13 0.13 0.12 0.12 0.13 0.13 0.13 0.12 0.12 0.13 0.14
0.32 0.33 0.34 0.36 0.37 0.38 0.39 0.38 0.36 0.34 0.32 0.29 0.22 0.17 0.15 0.12 0.12 0.12 0.13 0.12 0.11 0.09 0.11 0.13 0.14 0.13 0.14 0.15 0.15 0.14 0.13 0.12 0.12 0.12 0.12 0.12 0.11 0.11 0.11 0.11 0.11 0.11 0.12 0.12
0.34 0.36 0.36 0.38 0.40 0.40 0.38 0.37 0.36 0.34 0.32 0.27 0.20 0.15 0.13 0.12 0.12 0.12 0.12 0.11 0.11 0.12 0.13 0.13 0.13 0.13 0.13 0.15 0.15 0.15 0.14 0.13 0.13 0.13 0.13 0.12 0.11 0.10 0.10 0.10 0.10 0.10 0.10 0.10
0.37 0.37 0.36 0.37 0.38 0.40 0.39 0.38 0.36 0.32 0.29 0.22 0.16 0.13 0.11 0.12 0.14 0.15 0.14 0.14 0.13 0.14 0.15 0.15 0.14 0.14 0.13 0.13 0.15 0.15 0.15 0.14 0.13 0.13 0.12 0.12 0.12 0.12 0.11 0.11 0.10 0.09 0.09 0.10
0.38 0.37 0.37 0.37 0.36 0.37 0.38 0.37 0.35 0.31 0.25 0.18 0.15 0.13 0.12 0.12 0.14 0.15 0.17 0.16 0.15 0.16 0.16 0.15 0.16 0.16 0.14 0.14 0.15 0.15 0.13 0.13 0.12 0.12 0.11 0.11 0.11 0.10 0.11 0.11 0.11 0.12 0.11 0.10
0.37 0.38 0.38 0.37 0.36 0.36 0.36 0.34 0.31 0.27 0.20 0.16 0.13 0.14 0.16 0.17 0.16 0.16 0.15 0.17 0.17 0.16 0.16 0.17 0.17 0.16 0.15 0.15 0.15 0.13 0.13 0.12 0.11 0.11 0.10 0.09 0.09 0.10 0.09 0.09 0.10 0.10 0.11 0.12
0.38 0.37 0.37 0.38 0.37 0.35 0.32 0.31 0.27 0.21 0.17 0.14 0.17 0.18 0.17 0.17 0.18 0.19 0.19 0.18 0.16 0.15 0.17 0.19 0.17 0.16 0.15 0.13 0.13 0.12 0.12 0.11 0.10 0.09 0.09 0.09 0.08 0.09 0.08 0.08 0.08 0.09 0.10 0.10
0.37 0.36 0.36 0.36 0.34 0.33 0.31 0.27 0.22 0.18 0.15 0.15 0.16 0.16 0.17 0.19 0.18 0.19 0.18 0.16 0.16 0.18 0.18 0.17 0.16 0.15 0.13 0.12 0.11 0.11 0.10 0.10 0.09 0.08 0.08 0.08 0.07 0.07 0.07 0.07 0.07 0.07 0.08 0.09
0.36 0.35 0.35 0.34 0.32 0.30 0.28 0.25 0.19 0.16 0.15 0.14 0.15 0.18 0.18 0.19 0.19 0.17 0.16 0.17 0.19 0.19 0.18 0.17 0.15 0.14 0.12 0.12 0.11 0.10 0.09 0.09 0.08 0.07 0.07 0.07 0.07 0.07 0.06 0.06 0.06 0.07 0.07 0.08
0.35 0.34 0.32 0.30 0.30 0.29 0.26 0.21 0.17 0.16 0.17 0.19 0.19 0.20 0.19 0.17 0.17 0.17 0.18 0.19 0.18 0.16 0.15 0.15 0.14 0.13 0.12 0.11 0.10 0.09 0.09 0.08 0.07 0.07 0.07 0.06 0.06 0.06 0.06 0.06 0.06 0.07 0.07 0.07
Wind_Speed
16 16 14 14 11 15 16 14 12 14 12 12 12 12 14 14 16 18 20 21 21 23 24 24 24 23 21 21 20 19 19 18 19 21 22 23 25 26 26 23 22 20 19 19
16 17 15 15 14 14 13 14 13 9 11 13 12 14 16 18 19 20 21 21 22 23 23 22 21 20 19 18 17 16 16 17 18 19 20 22 23 23 22 19 17 15 15 15
16 18 16 15 14 14 10 10 14 14 14 12 12 12 15 16 17 18 20 20 20 20 19 19 18 17 15 15 14 14 14 15 17 18 18 20 20 20 17 16 14 12 12 12
12 10 14 12 10 9 9 9 9 8 11 11 12 12 14 16 16 17 17 16 17 17 16 15 14 13 12 12 11 12 13 14 15 16 17 18 18 17 14 13 13 11 11 11
11 12 9 10 9 11 11 10 10 11 10 11 12 12 13 13 13 13 13 13 13 12 11 11 10 9 8 8 9 10 12 12 13 13 14 15 15 14 13 13 13 13 9 6
11 10 12 10 9 8 8 9 8 10 12 12 13 13 13 11 10 9 8 9 8 7 6 5 5 5 5 5 7 9 10 11 12 12 14 14 13 14 15 14 14 14 13 9
11 11 9 9 7 8 7 9 8 10 12 15 12 11 7 6 5 3 3 3 3 4 5 5 6 7 6 7 8 9 10 11 12 13 15 16 14 15 15 15 15 15 15 13
12 10 10 8 8 8 7 6 7 7 7 4 4 3 3 3 1 1 4 4 5 6 6 7 8 9 10 9 10 10 11 11 12 14 14 15 16 16 15 15 14 15 14 14
9 8 5 4 4 5 5 4 3 2 0 4 4 5 6 4 4 5 6 6 8 9 9 9 9 9 10 11 10 12 12 13 13 15 15 15 16 17 16 16 15 14 14 13
9 8 7 5 3 2 2 2 3 3 4 5 7 9 9 8 8 9 9 9 8 8 9 9 9 10 11 11 12 12 13 14 15 16 16 17 17 16 16 17 17 16 15 14
7 8 7 6 4 4 5 5 6 6 7 9 11 11 11 10 9 8 8 8 9 9 9 9 10 11 12 12 13 13 14 15 16 16 17 16 17 17 17 17 17 17 17 17
8 11 7 7 7 7 7 7 8 8 8 9 9 10 10 10 10 10 9 9 9 9 9 9 10 10 12 13 13 14 14 16 17 17 18 18 18 18 18 18 20 20 19 19
7 8 7 9 8 8 9 9 9 9 10 11 11 11 11 11 10 10 9 8 8 7 7 8 9 10 12 13 14 15 15 17 18 19 19 20 20 21 21 22 23 24 23 23
9 8 8 10 8 10 10 10 11 10 11 11 12 12 11 11 10 8 7 7 6 6 7 8 10 11 13 14 14 15 17 18 19 20 21 22 23 24 24 25 25 27 27 27
10 8 11 11 11 11 11 12 11 11 12 12 12 12 11 9 8 6 5 5 4 5 7 8 10 11 12 14 16 17 19 20 21 22 23 24 24 25 26 27 27 28 29 29
10 11 12 13 13 13 13 13 12 12 13 13 12 11 9 8 6 5 3 3 3 5 7 9 10 12 13 16 18 20 21 22 23 24 26 27 28 29 29 30 30 31 31 31
13 14 15 15 14 14 14 14 13 13 14 14 13 11 10 7 5 4 2 2 4 6 7 9 11 13 15 18 20 21 22 24 25 27 28 29 31 32 33 33 33 34 33 33
15 15 15 16 15 15 14 15 15 14 14 14 13 11 9 7 5 3 1 2 5 7 9 11 13 16 18 20 22 23 25 26 28 29 31 32 33 34 35 35 36 36 36 36
18 17 17 17 16 16 15 15 15 14 15 15 13 10 8 7 5 3 3 4 7 9 11 13 15 18 20 22 24 26 27 29 30 32 33 34 35 36 36 37 37 37 37 37
16 17 17 17 17 16 16 15 15 15 15 15 13 10 8 7 5 3 4 7 9 10 13 15 18 21 23 25 27 28 29 31 33 34 36 37 37 38 38 38 38 38 38 38
15 17 17 17 16 15 15 16 16 15 15 15 13 10 9 7 6 6 7 9 11 13 15 18 20 24 26 27 29 30 32 34 35 37 38 38 39 39 39 40 39 38 37 35
15 15 15 15 15 15 14 15 16 16 14 13 12 10 9 7 7 8 10 11 13 16 19 19 23 26 28 29 30 32 34 36 37 38 39 40 41 41 41 40 40 38 36 35
13 14 14 14 14 14 14 15 15 15 14 13 11 10 9 8 9 10 12 13 16 18 20 22 25 27 29 31 32 34 36 37 38 39 40 41 41 40 40 39 38 37 35 34
12 13 13 13 13 14 15 15 15 14 13 12 10 9 9 9 9 11 13 15 18 21 22 24 25 28 30 32 34 36 37 38 39 40 41 41 41 40 39 38 37 35 34 32
11 13 13 14 13 13 15 15 14 13 12 11 10 9 9 10 12 13 15 17 19 21 23 24 27 29 31 33 35 36 38 39 40 41 41 41 40 39 38 37 36 35 33 32
11 11 12 13 13 14 15 15 14 13 12 11 10 10 10 11 12 14 17 18 20 22 24 26 28 30 32 34 35 37 38 39 40 41 40 40 40 39 38 36 35 34 33 32
9 10 11 11 13 15 16 15 14 13 12 11 10 10 11 12 14 16 17 20 22 24 26 28 29 31 32 34 36 38 39 40 41 40 39 39 39 38 37 36 35 34 33 32
Wind_Direction
256 246 243 258 252 240 237 240 243 256 242 247 250 257 264 269 276 288 293 294 296 298 299 299 300 301 302 303 303 303 305 306 309 309 309 311 313 314 312 300 294 292 278 275
252 247 240 249 253 251 251 259 257 237 250 252 262 269 276 280 283 286 290 292 294 297 299 299 300 300 301 303 305 306 308 312 314 316 317 318 319 320 317 315 304 291 281 280
244 238 247 253 249 251 244 271 267 264 254 250 262 271 280 282 287 289 291 294 296 297 299 298 299 300 302 304 307 311 314 317 321 323 325 328 327 326 327 326 318 305 296 288
236 221 235 238 249 247 237 262 272 258 253 258 262 273 284 289 290 292 294 296 299 299 298 300 301 300 303 306 311 317 322 326 329 331 332 335 340 341 338 335 339 329 317 300
226 227 226 232 250 246 248 255 267 269 259 259 263 276 289 290 293 294 294 296 301 303 302 301 303 308 310 322 329 334 337 339 342 347 351 352 355 3 4 2 3 1 346 347
222 225 237 240 229 235 257 256 264 275 277 271 267 281 281 287 296 298 301 309 310 317 323 330 338 339 349 0 5 4 14 19 20 22 21 22 23 23 25 25 25 24 25 17
227 230 240 236 241 248 261 262 269 279 284 279 275 277 257 270 292 299 322 355 43 55 51 53 53 51 49 39 45 42 34 33 33 30 31 31 29 30 28 28 27 27 29 31
224 230 232 248 247 251 258 272 279 288 292 276 231 215 207 180 184 66 90 87 89 77 70 67 66 64 56 48 41 38 36 34 33 30 29 29 28 26 24 24 24 23 22 22
221 220 217 219 231 264 260 257 269 281 197 148 156 159 150 136 125 113 106 98 96 92 84 73 62 56 53 47 45 41 37 34 30 28 26 24 23 22 21 19 17 14 12 10
203 202 203 215 231 239 207 173 151 124 116 134 132 139 135 127 119 115 110 102 96 88 79 71 62 54 48 44 40 37 33 27 21 18 15 14 14 13 12 10 8 6 1 358
206 197 202 207 210 183 161 153 146 131 127 123 127 130 131 126 123 119 110 102 95 89 80 70 63 53 44 35 29 23 19 15 12 9 7 4 3 3 2 2 360 354 351 348
219 198 211 195 187 180 174 166 159 154 146 142 138 137 135 131 126 119 111 104 94 82 73 62 51 39 27 21 15 12 8 5 3 360 358 356 353 350 350 349 348 345 340 337
200 188 182 175 179 181 176 172 166 159 155 151 147 143 139 133 127 119 110 100 91 78 63 45 32 22 15 10 10 9 5 360 355 353 349 346 343 341 337 333 335 335 331 329
179 174 184 183 187 178 174 169 164 159 157 154 152 148 142 134 128 123 116 106 88 63 42 27 18 12 7 6 3 1 358 353 348 345 343 340 338 335 332 329 327 327 325 322
212 215 194 190 184 181 177 174 170 168 166 161 156 150 145 137 129 120 114 96 65 42 25 11 7 1 358 356 353 350 346 345 343 341 340 338 335 333 331 328 326 323 320 318
209 198 190 190 187 185 185 181 177 173 171 163 160 157 153 146 136 127 107 65 43 15 4 1 357 352 349 348 346 343 342 341 340 337 335 334 332 330 327 325 323 322 320 316
206 203 198 193 193 190 190 186 183 179 177 174 170 167 162 157 147 135 107 51 17 3 354 352 347 346 343 341 340 340 338 338 337 335 334 331 329 327 325 323 321 319 316 314
217 209 203 198 194 192 190 186 183 182 180 178 173 171 173 175 173 180 186 346 351 348 342 340 339 338 338 338 337 337 336 334 333 332 331 330 328 325 324 322 320 318 315 313
211 206 200 197 194 188 185 185 186 184 183 181 179 182 184 187 195 217 292 313 321 329 330 334 335 336 334 335 334 333 333 332 331 330 328 327 326 324 323 320 318 317 314 311
198 195 189 186 186 186 187 187 186 186 186 183 184 188 194 203 215 253 296 314 317 321 324 329 331 332 332 331 331 330 330 329 329 327 326 325 324 323 322 320 318 316 313 311
180 179 180 182 185 186 189 189 188 187 186 187 193 199 207 212 237 271 293 307 313 318 321 324 327 330 329 329 328 329 329 328 328 327 326 325 324 322 320 319 317 315 314 311
173 176 179 181 184 185 187 187 186 185 187 191 196 203 211 233 258 285 301 305 313 318 321 321 324 327 328 329 328 328 328 328 328 328 327 326 325 323 321 320 319 313 311 310
176 179 182 186 187 188 187 186 186 186 191 196 202 212 229 252 273 288 302 308 313 318 320 321 323 325 327 327 328 328 328 328 328 328 327 326 325 324 323 321 320 319 317 310
183 185 186 185 185 186 187 189 189 193 197 203 213 231 249 265 287 298 304 310 314 318 319 320 322 325 326 326 327 327 328 329 328 328 327 327 326 325 324 322 320 318 316 315
185 188 190 192 193 195 191 192 194 199 206 217 228 243 263 278 288 298 306 311 315 318 320 321 323 325 325 326 327 328 329 329 329 328 328 328 327 326 325 323 321 319 316 313
184 191 196 201 203 200 199 200 205 209 218 227 239 253 271 284 294 301 308 313 315 319 320 321 323 324 325 327 328 328 329 329 329 329 329 329 328 328 326 325 323 321 318 316
200 201 202 204 202 203 202 204 211 218 220 229 241 258 275 289 298 304 309 313 316 318 320 321 324 325 326 327 328 329 330 330 331 330 331 331 330 329 328 327 325 323 321 318